| time (UTC) | temp F | wind direction | speed knots | gust knots | rain 1hr in | rain 24hr in | rain mn in | humidity % | barometer mb |
| 20260506092049 | 58 | 244 | 0.9 | 2.6 | 0.00 | 0.04 | 0.00 | 61 | 1014.4 |
| 20260506091555 | 58 | 244 | 1.7 | 3.5 | 0.00 | 0.04 | 0.00 | 60 | 1014.5 |
| 20260506091052 | 58 | 244 | 1.7 | 3.5 | 0.00 | 0.04 | 0.00 | 60 | 1014.4 |
| 20260506090555 | 58 | 244 | 0.9 | 3.5 | 0.00 | 0.04 | 0.00 | 60 | 1014.4 |
| 20260506085552 | 59 | 0 | 0.0 | 3.5 | 0.00 | 0.08 | 0.00 | 58 | 1014.5 |
| 20260506085053 | 59 | 244 | 0.9 | 3.5 | 0.00 | 0.08 | 0.00 | 58 | 1014.6 |
| 20260506084610 | 59 | 244 | 1.7 | 3.5 | 0.00 | 0.08 | 0.00 | 59 | 1014.6 |
| 20260506084050 | 58 | 244 | 1.7 | 3.5 | 0.00 | 0.08 | 0.00 | 59 | 1014.6 |
| 20260506083552 | 58 | 244 | 1.7 | 4.3 | 0.00 | 0.08 | 0.00 | 61 | 1014.5 |
| 20260506083107 | 58 | 244 | 1.7 | 4.3 | 0.00 | 0.08 | 0.00 | 61 | 1014.5 |
| 20260506082551 | 58 | 0 | 0.0 | 2.6 | 0.00 | 0.08 | 0.00 | 63 | 1014.6 |
| 20260506082055 | 58 | 0 | 0.0 | 0.9 | 0.00 | 0.08 | 0.00 | 63 | 1014.7 |
| 20260506081609 | 57 | 0 | 0.0 | 0.9 | 0.00 | 0.08 | 0.00 | 64 | 1014.8 |
| 20260506081050 | 58 | 0 | 0.0 | 2.6 | 0.00 | 0.08 | 0.00 | 64 | 1014.8 |
| 20260506080550 | 58 | 0 | 0.0 | 2.6 | 0.00 | 0.08 | 0.00 | 63 | 1014.8 |
| 20260506073110 | 60 | 244 | 0.9 | 3.5 | 0.00 | 0.15 | 0.00 | 58 | 1014.9 |
| 20260506072553 | 60 | 244 | 1.7 | 3.5 | 0.00 | 0.15 | 0.00 | 58 | 1014.9 |
| 20260506072057 | 60 | 244 | 0.9 | 3.5 | 0.00 | 0.15 | 0.00 | 58 | 1014.9 |
| 20260506071614 | 60 | 244 | 0.9 | 3.5 | 0.00 | 0.15 | 0.00 | 58 | 1014.8 |
| 20260506071056 | 60 | 244 | 1.7 | 3.5 | 0.00 | 0.15 | 0.00 | 58 | 1014.7 |
| 20260506070552 | 60 | 244 | 0.9 | 2.6 | 0.00 | 0.15 | 0.00 | 57 | 1014.6 |
| 20260506070104 | 60 | 244 | 0.0 | 2.6 | 0.00 | 0.15 | 0.00 | 57 | 1014.7 |
| 20260506062052 | 61 | 244 | 0.9 | 4.3 | 0.00 | 0.21 | 0.15 | 58 | 1014.6 |
| 20260506061557 | 61 | 244 | 0.9 | 7.0 | 0.00 | 0.21 | 0.15 | 57 | 1014.7 |
| 20260506061053 | 62 | 244 | 2.6 | 7.0 | 0.00 | 0.21 | 0.15 | 57 | 1014.7 |
| 20260506060554 | 62 | 244 | 1.7 | 6.1 | 0.00 | 0.21 | 0.15 | 57 | 1014.6 |
| 20260506051053 | 63 | 273 | 0.0 | 3.5 | 0.00 | 0.25 | 0.15 | 54 | 1014.4 |
| 20260506050552 | 63 | 273 | 1.7 | 3.5 | 0.00 | 0.25 | 0.15 | 53 | 1014.4 |
| 20260506045051 | 63 | 274 | 0.0 | 1.7 | 0.00 | 0.29 | 0.15 | 53 | 1014.1 |
| 20260506044559 | 64 | 274 | 0.0 | 2.6 | 0.00 | 0.29 | 0.15 | 52 | 1014.0 |
| 20260506044052 | 64 | 0 | 0.0 | 2.6 | 0.00 | 0.29 | 0.15 | 51 | 1014.0 |
| 20260506043553 | 64 | 0 | 0.9 | 6.1 | 0.00 | 0.29 | 0.15 | 50 | 1013.9 |
| 20260506043053 | 64 | 0 | 0.9 | 6.1 | 0.00 | 0.29 | 0.15 | 50 | 1014.0 |
| 20260506042553 | 64 | 267 | 0.9 | 7.8 | 0.00 | 0.29 | 0.15 | 50 | 1014.0 |
| 20260506042052 | 65 | 266 | 1.7 | 7.8 | 0.00 | 0.29 | 0.15 | 49 | 1013.9 |
| 20260506041605 | 65 | 285 | 2.6 | 9.6 | 0.00 | 0.29 | 0.15 | 48 | 1013.8 |
| 20260506041052 | 65 | 261 | 4.3 | 9.6 | 0.00 | 0.29 | 0.15 | 47 | 1013.7 |
| 20260506040550 | 65 | 252 | 2.6 | 7.8 | 0.00 | 0.29 | 0.15 | 47 | 1013.5 |
| 20260506040100 | 65 | 235 | 3.5 | 7.8 | 0.00 | 0.29 | 0.15 | 47 | 1013.3 |
| 20260506035552 | 65 | 239 | 3.5 | 11.3 | 0.00 | 0.30 | 0.15 | 46 | 1013.2 |
| 20260506035052 | 66 | 221 | 3.5 | 11.3 | 0.00 | 0.30 | 0.15 | 46 | 1013.1 |
| 20260506034556 | 66 | 225 | 3.5 | 12.2 | 0.00 | 0.30 | 0.15 | 46 | 1013.0 |
| 20260506034050 | 66 | 230 | 3.5 | 12.2 | 0.00 | 0.30 | 0.15 | 45 | 1013.0 |
| 20260506033554 | 66 | 220 | 5.2 | 12.2 | 0.00 | 0.30 | 0.15 | 45 | 1013.0 |
| 20260506033110 | 66 | 230 | 3.5 | 8.7 | 0.00 | 0.30 | 0.15 | 45 | 1013.0 |
| 20260506032552 | 66 | 232 | 3.5 | 8.7 | 0.00 | 0.30 | 0.15 | 44 | 1013.0 |
| 20260506032126 | 66 | 221 | 3.5 | 11.3 | 0.00 | 0.30 | 0.15 | 43 | 1012.8 |
| 20260506031557 | 67 | 215 | 4.3 | 12.2 | 0.00 | 0.30 | 0.15 | 42 | 1012.7 |
| 20260506031056 | 67 | 227 | 5.2 | 12.2 | 0.00 | 0.30 | 0.15 | 41 | 1012.7 |
| 20260506030557 | 67 | 237 | 4.3 | 9.6 | 0.00 | 0.30 | 0.15 | 40 | 1012.7 |
| 20260506030055 | 67 | 229 | 4.3 | 12.2 | 0.00 | 0.30 | 0.15 | 37 | 1012.5 |
| 20260506025552 | 67 | 247 | 6.1 | 12.2 | 0.00 | 0.31 | 0.15 | 36 | 1012.4 |
| 20260506025052 | 67 | 234 | 5.2 | 11.3 | 0.00 | 0.31 | 0.15 | 36 | 1012.4 |
| 20260506024552 | 67 | 226 | 4.3 | 9.6 | 0.00 | 0.31 | 0.15 | 36 | 1012.4 |
| 20260506024052 | 67 | 223 | 3.5 | 11.3 | 0.00 | 0.31 | 0.15 | 36 | 1012.2 |
| 20260506023554 | 67 | 246 | 5.2 | 13.0 | 0.00 | 0.31 | 0.15 | 35 | 1012.1 |
| 20260506023052 | 68 | 239 | 5.2 | 13.0 | 0.00 | 0.31 | 0.15 | 35 | 1012.0 |
| 20260506022552 | 68 | 245 | 7.8 | 13.0 | 0.00 | 0.31 | 0.15 | 34 | 1011.9 |
| 20260506022049 | 68 | 234 | 5.2 | 12.2 | 0.00 | 0.31 | 0.15 | 33 | 1011.8 |
| 20260506021554 | 68 | 238 | 5.2 | 13.0 | 0.00 | 0.31 | 0.15 | 32 | 1011.6 |
| 20260506021049 | 68 | 221 | 7.8 | 13.0 | 0.00 | 0.31 | 0.15 | 31 | 1011.5 |
| 20260506020549 | 68 | 246 | 6.1 | 13.9 | 0.00 | 0.31 | 0.15 | 32 | 1011.4 |
| 20260506020052 | 69 | 232 | 7.0 | 13.9 | 0.00 | 0.31 | 0.15 | 31 | 1011.4 |
| 20260506015556 | 69 | 244 | 7.8 | 14.8 | 0.00 | 0.34 | 0.15 | 31 | 1011.3 |
| 20260506015053 | 69 | 217 | 7.0 | 14.8 | 0.00 | 0.34 | 0.15 | 30 | 1011.3 |
| 20260506014555 | 69 | 253 | 6.1 | 15.6 | 0.00 | 0.34 | 0.15 | 29 | 1011.3 |
| 20260506014051 | 70 | 257 | 7.8 | 15.6 | 0.00 | 0.34 | 0.15 | 30 | 1011.2 |
| 20260506013549 | 70 | 219 | 7.8 | 16.5 | 0.00 | 0.34 | 0.15 | 30 | 1011.3 |
| 20260506013055 | 70 | 239 | 7.8 | 16.5 | 0.00 | 0.34 | 0.15 | 30 | 1011.3 |
| 20260506012553 | 70 | 246 | 8.7 | 16.5 | 0.00 | 0.34 | 0.15 | 30 | 1011.2 |
| 20260506012052 | 71 | 244 | 9.6 | 16.5 | 0.00 | 0.34 | 0.15 | 31 | 1011.3 |
| 20260506011553 | 71 | 254 | 6.1 | 18.2 | 0.00 | 0.34 | 0.15 | 32 | 1011.3 |
| 20260506011052 | 71 | 215 | 7.8 | 18.2 | 0.00 | 0.34 | 0.15 | 32 | 1011.2 |
| 20260506010555 | 71 | 263 | 7.8 | 14.8 | 0.00 | 0.34 | 0.15 | 33 | 1011.2 |
| 20260506010055 | 71 | 237 | 7.8 | 13.9 | 0.00 | 0.34 | 0.15 | 33 | 1011.1 |
| 20260506005552 | 71 | 275 | 7.0 | 16.5 | 0.00 | 0.35 | 0.15 | 32 | 1011.1 |
| 20260506005052 | 72 | 262 | 8.7 | 16.5 | 0.00 | 0.35 | 0.15 | 31 | 1011.1 |
| 20260506004557 | 72 | 238 | 7.8 | 16.5 | 0.00 | 0.35 | 0.15 | 31 | 1011.1 |
| 20260506004052 | 72 | 231 | 6.1 | 13.9 | 0.00 | 0.35 | 0.15 | 31 | 1010.9 |
| 20260506003553 | 71 | 230 | 7.0 | 13.9 | 0.00 | 0.35 | 0.15 | 31 | 1010.9 |
| 20260506003053 | 72 | 252 | 5.2 | 17.4 | 0.00 | 0.35 | 0.15 | 30 | 1010.9 |
| 20260506002553 | 72 | 235 | 7.8 | 17.4 | 0.00 | 0.35 | 0.15 | 29 | 1010.9 |
| 20260506002053 | 73 | 236 | 10.4 | 17.4 | 0.00 | 0.35 | 0.15 | 28 | 1010.8 |
| 20260506001609 | 72 | 269 | 4.3 | 16.5 | 0.00 | 0.35 | 0.15 | 28 | 1010.8 |
| 20260506001053 | 73 | 269 | 5.2 | 16.5 | 0.00 | 0.35 | 0.15 | 29 | 1010.8 |
| 20260506000553 | 73 | 217 | 9.6 | 16.5 | 0.00 | 0.35 | 0.15 | 27 | 1010.8 |
| 20260505235552 | 75 | 249 | 0.9 | 8.7 | 0.00 | 0.35 | 0.15 | 27 | 1010.6 |
| 20260505235052 | 75 | 202 | 2.6 | 13.0 | 0.00 | 0.35 | 0.15 | 28 | 1010.6 |
| 20260505234600 | 74 | 230 | 3.5 | 13.0 | 0.00 | 0.35 | 0.15 | 29 | 1010.6 |
| 20260505234056 | 74 | 234 | 1.7 | 13.0 | 0.00 | 0.35 | 0.15 | 28 | 1010.6 |
| 20260505233551 | 74 | 273 | 4.3 | 11.3 | 0.00 | 0.35 | 0.15 | 26 | 1010.3 |
| 20260505233101 | 74 | 213 | 1.7 | 13.9 | 0.00 | 0.35 | 0.15 | 26 | 1010.4 |
| 20260505232552 | 75 | 161 | 4.3 | 13.9 | 0.00 | 0.35 | 0.15 | 26 | 1010.4 |
| 20260505232053 | 76 | 243 | 3.5 | 10.4 | 0.00 | 0.35 | 0.15 | 25 | 1010.3 |
| 20260505231602 | 76 | 0 | 2.6 | 10.4 | 0.00 | 0.35 | 0.15 | 25 | 1010.3 |
| 20260505231051 | 75 | 188 | 1.7 | 10.4 | 0.00 | 0.35 | 0.15 | 26 | 1010.1 |
| 20260505230552 | 75 | 0 | 1.7 | 10.4 | 0.00 | 0.35 | 0.15 | 28 | 1010.4 |
| 20260505230117 | 74 | 220 | 3.5 | 9.6 | 0.00 | 0.35 | 0.15 | 27 | 1010.4 |
| 20260505225553 | 75 | 198 | 1.7 | 7.8 | 0.00 | 0.35 | 0.15 | 27 | 1010.6 |
| 20260505225055 | 75 | 122 | 3.5 | 10.4 | 0.00 | 0.35 | 0.15 | 26 | 1010.6 |
| 20260505224559 | 75 | 198 | 0.9 | 13.9 | 0.00 | 0.35 | 0.15 | 25 | 1010.6 |
| 20260505224053 | 75 | 243 | 4.3 | 13.9 | 0.00 | 0.35 | 0.15 | 26 | 1010.7 |
| 20260505223552 | 76 | 223 | 1.7 | 10.4 | 0.00 | 0.35 | 0.15 | 26 | 1010.5 |
| 20260505223100 | 75 | 184 | 1.7 | 10.4 | 0.00 | 0.35 | 0.15 | 29 | 1010.7 |
| 20260505222552 | 75 | 232 | 5.2 | 10.4 | 0.00 | 0.35 | 0.15 | 29 | 1010.8 |
| 20260505222053 | 75 | 277 | 5.2 | 10.4 | 0.00 | 0.35 | 0.15 | 30 | 1010.8 |
| 20260505221555 | 74 | 248 | 4.3 | 10.4 | 0.00 | 0.35 | 0.15 | 32 | 1010.8 |
| 20260505221052 | 72 | 229 | 2.6 | 9.6 | 0.00 | 0.35 | 0.15 | 33 | 1010.9 |
| 20260505220550 | 73 | 277 | 4.3 | 9.6 | 0.00 | 0.35 | 0.15 | 32 | 1010.9 |
| 20260505220055 | 73 | 219 | 1.7 | 9.6 | 0.00 | 0.35 | 0.15 | 32 | 1011.1 |
| 20260505215549 | 73 | 201 | 1.7 | 10.4 | 0.00 | 0.35 | 0.15 | 32 | 1011.1 |
| 20260505215053 | 74 | 186 | 4.3 | 11.3 | 0.00 | 0.35 | 0.15 | 31 | 1011.1 |
| 20260505214605 | 74 | 352 | 6.1 | 11.3 | 0.00 | 0.35 | 0.15 | 31 | 1011.2 |
| 20260505214050 | 73 | 230 | 3.5 | 16.5 | 0.00 | 0.35 | 0.15 | 31 | 1011.2 |
| 20260505213552 | 74 | 226 | 5.2 | 16.5 | 0.00 | 0.35 | 0.15 | 31 | 1011.4 |
| 20260505213059 | 75 | 161 | 2.6 | 11.3 | 0.00 | 0.35 | 0.15 | 32 | 1011.5 |
| 20260505212552 | 74 | 0 | 4.3 | 9.6 | 0.00 | 0.35 | 0.15 | 35 | 1011.4 |
| 20260505212052 | 73 | 225 | 2.6 | 10.4 | 0.00 | 0.35 | 0.15 | 33 | 1011.5 |
| 20260505211607 | 72 | 217 | 5.2 | 11.3 | 0.00 | 0.35 | 0.15 | 34 | 1011.5 |
| 20260505211052 | 72 | 242 | 2.6 | 11.3 | 0.00 | 0.35 | 0.15 | 37 | 1011.5 |
| 20260505210552 | 72 | 261 | 5.2 | 13.9 | 0.00 | 0.35 | 0.15 | 39 | 1011.5 |
| 20260505210104 | 72 | 319 | 4.3 | 13.9 | 0.00 | 0.35 | 0.15 | 35 | 1011.5 |
| 20260505205552 | 73 | 227 | 3.5 | 10.4 | 0.00 | 0.35 | 0.15 | 32 | 1011.5 |
| 20260505205052 | 74 | 161 | 5.2 | 10.4 | 0.00 | 0.35 | 0.15 | 32 | 1011.6 |
| 20260505204558 | 74 | 136 | 3.5 | 8.7 | 0.00 | 0.35 | 0.15 | 32 | 1011.6 |
| 20260505204053 | 75 | 223 | 2.6 | 11.3 | 0.00 | 0.35 | 0.15 | 31 | 1011.6 |
| 20260505203553 | 75 | 219 | 2.6 | 11.3 | 0.00 | 0.35 | 0.15 | 33 | 1011.7 |
| 20260505203054 | 75 | 236 | 2.6 | 7.8 | 0.00 | 0.35 | 0.15 | 31 | 1011.7 |
| 20260505202553 | 75 | 217 | 0.9 | 13.0 | 0.00 | 0.35 | 0.15 | 32 | 1011.6 |
| 20260505202054 | 75 | 223 | 4.3 | 13.0 | 0.00 | 0.35 | 0.15 | 33 | 1011.8 |
| 20260505201605 | 75 | 227 | 5.2 | 13.9 | 0.00 | 0.35 | 0.15 | 33 | 1011.7 |
| 20260505201053 | 74 | 170 | 4.3 | 13.9 | 0.01 | 0.35 | 0.15 | 34 | 1011.7 |
| 20260505200553 | 74 | 178 | 5.2 | 12.2 | 0.01 | 0.35 | 0.15 | 33 | 1011.7 |
| 20260505200052 | 74 | 0 | 1.7 | 14.8 | 0.01 | 0.35 | 0.15 | 34 | 1011.7 |
| 20260505195553 | 74 | 268 | 3.5 | 14.8 | 0.01 | 0.35 | 0.15 | 35 | 1011.7 |
| 20260505195054 | 73 | 228 | 5.2 | 15.6 | 0.01 | 0.35 | 0.15 | 36 | 1011.8 |
| 20260505194554 | 73 | 236 | 7.8 | 15.6 | 0.01 | 0.35 | 0.15 | 36 | 1012.0 |
| 20260505194053 | 73 | 223 | 6.1 | 14.8 | 0.01 | 0.35 | 0.15 | 37 | 1012.0 |
| 20260505193552 | 73 | 181 | 3.5 | 14.8 | 0.01 | 0.35 | 0.15 | 37 | 1011.9 |
| 20260505193052 | 73 | 217 | 5.2 | 11.3 | 0.01 | 0.35 | 0.15 | 39 | 1012.0 |
| 20260505192556 | 73 | 201 | 1.7 | 17.4 | 0.01 | 0.35 | 0.15 | 40 | 1012.0 |
| 20260505192053 | 72 | 229 | 7.0 | 17.4 | 0.01 | 0.35 | 0.15 | 39 | 1012.2 |
| 20260505191558 | 72 | 223 | 4.3 | 18.2 | 0.01 | 0.35 | 0.15 | 41 | 1012.2 |
| 20260505191053 | 72 | 161 | 4.3 | 18.2 | 0.00 | 0.34 | 0.14 | 42 | 1012.0 |
| 20260505190556 | 73 | 219 | 4.3 | 15.6 | 0.00 | 0.34 | 0.14 | 43 | 1012.1 |
| 20260505190112 | 72 | 0 | 5.2 | 15.6 | 0.00 | 0.34 | 0.14 | 46 | 1012.2 |
| 20260505185552 | 72 | 237 | 3.5 | 15.6 | 0.00 | 0.34 | 0.14 | 45 | 1012.1 |
| 20260505185052 | 71 | 230 | 5.2 | 10.4 | 0.00 | 0.34 | 0.14 | 47 | 1012.2 |
| 20260505184605 | 70 | 228 | 4.3 | 12.2 | 0.00 | 0.34 | 0.14 | 48 | 1012.4 |
| 20260505184053 | 70 | 294 | 5.2 | 12.2 | 0.00 | 0.34 | 0.14 | 49 | 1012.4 |
| 20260505183552 | 71 | 236 | 1.7 | 7.8 | 0.00 | 0.34 | 0.14 | 52 | 1012.5 |
| 20260505183054 | 70 | 242 | 1.7 | 7.8 | 0.00 | 0.34 | 0.14 | 55 | 1012.7 |
| 20260505182552 | 69 | 0 | 2.6 | 7.8 | 0.00 | 0.34 | 0.14 | 53 | 1012.7 |
| 20260505182056 | 69 | 0 | 2.6 | 7.0 | 0.00 | 0.34 | 0.14 | 55 | 1012.8 |
| 20260505181552 | 68 | 0 | 0.9 | 8.7 | 0.00 | 0.34 | 0.14 | 55 | 1012.8 |
| 20260505181055 | 67 | 198 | 3.5 | 9.6 | 0.00 | 0.34 | 0.14 | 58 | 1013.0 |
| 20260505180552 | 67 | 230 | 3.5 | 10.4 | 0.00 | 0.34 | 0.14 | 56 | 1012.9 |
| 20260505180053 | 67 | 219 | 4.3 | 10.4 | 0.00 | 0.34 | 0.14 | 58 | 1013.1 |
| 20260505175552 | 68 | 227 | 2.6 | 7.0 | 0.00 | 0.34 | 0.14 | 57 | 1013.1 |
| 20260505175053 | 67 | 214 | 0.9 | 4.3 | 0.00 | 0.34 | 0.14 | 58 | 1013.2 |
| 20260505174553 | 66 | 0 | 0.0 | 6.1 | 0.00 | 0.34 | 0.14 | 60 | 1013.2 |
| 20260505174053 | 66 | 219 | 2.6 | 6.1 | 0.00 | 0.34 | 0.14 | 58 | 1013.2 |
| 20260505173553 | 66 | 0 | 1.7 | 6.1 | 0.00 | 0.34 | 0.14 | 58 | 1013.2 |
| 20260505173053 | 66 | 138 | 0.9 | 8.7 | 0.00 | 0.34 | 0.14 | 61 | 1013.2 |
| 20260505172552 | 65 | 123 | 3.5 | 8.7 | 0.00 | 0.34 | 0.14 | 61 | 1013.4 |
| 20260505172053 | 65 | 0 | 0.9 | 4.3 | 0.00 | 0.34 | 0.14 | 63 | 1013.3 |
| 20260505171556 | 64 | 32 | 0.0 | 2.6 | 0.00 | 0.34 | 0.14 | 66 | 1013.2 |
| 20260505171057 | 64 | 51 | 0.0 | 2.6 | 0.00 | 0.34 | 0.14 | 65 | 1013.1 |
| 20260505170559 | 64 | 51 | 0.0 | 3.5 | 0.00 | 0.34 | 0.14 | 65 | 1013.2 |
| 20260505170103 | 64 | 0 | 1.7 | 4.3 | 0.00 | 0.34 | 0.14 | 65 | 1013.2 |
| 20260505165552 | 64 | 51 | 0.9 | 4.3 | 0.00 | 0.34 | 0.14 | 68 | 1013.1 |
| 20260505165052 | 64 | 51 | 0.9 | 4.3 | 0.00 | 0.34 | 0.14 | 67 | 1013.2 |
| 20260505164554 | 64 | 55 | 0.9 | 4.3 | 0.00 | 0.34 | 0.14 | 69 | 1013.2 |
| 20260505164052 | 63 | 0 | 0.0 | 5.2 | 0.00 | 0.34 | 0.14 | 71 | 1013.2 |
| 20260505163555 | 63 | 0 | 1.7 | 6.1 | 0.00 | 0.34 | 0.14 | 70 | 1013.1 |
| 20260505163102 | 63 | 54 | 2.6 | 6.1 | 0.00 | 0.34 | 0.14 | 70 | 1013.1 |
| 20260505162553 | 63 | 67 | 0.9 | 3.5 | 0.00 | 0.34 | 0.14 | 70 | 1013.0 |
| 20260505162053 | 63 | 68 | 0.0 | 3.5 | 0.00 | 0.34 | 0.14 | 72 | 1013.1 |
| 20260505161556 | 63 | 68 | 0.9 | 3.5 | 0.00 | 0.34 | 0.14 | 71 | 1013.2 |
| 20260505161053 | 63 | 69 | 0.9 | 3.5 | 0.00 | 0.34 | 0.14 | 72 | 1013.2 |
| 20260505160552 | 63 | 0 | 0.0 | 2.6 | 0.00 | 0.34 | 0.14 | 73 | 1013.2 |
| 20260505160103 | 62 | 0 | 0.0 | 2.6 | 0.00 | 0.34 | 0.14 | 72 | 1013.2 |
| 20260505153108 | 62 | 0 | 0.9 | 2.6 | 0.00 | 0.34 | 0.14 | 74 | 1013.0 |
| 20260505152551 | 62 | 0 | 0.0 | 1.7 | 0.00 | 0.34 | 0.14 | 78 | 1013.0 |
| 20260505152051 | 61 | 0 | 0.0 | 0.9 | 0.00 | 0.34 | 0.14 | 77 | 1013.0 |
| 20260505151555 | 61 | 0 | 0.0 | 0.9 | 0.00 | 0.34 | 0.14 | 79 | 1013.0 |
| 20260505151053 | 61 | 0 | 0.0 | 1.7 | 0.00 | 0.34 | 0.14 | 81 | 1013.1 |
| 20260505150553 | 60 | 150 | 0.0 | 1.7 | 0.00 | 0.34 | 0.14 | 83 | 1013.1 |
| 20260505150115 | 60 | 0 | 0.0 | 2.6 | 0.00 | 0.34 | 0.14 | 83 | 1013.1 |
| 20260505140552 | 59 | 0 | 0.0 | 0.9 | 0.00 | 0.34 | 0.14 | 88 | 1013.0 |
| 20260505140112 | 59 | 0 | 0.0 | 0.9 | 0.00 | 0.34 | 0.14 | 88 | 1012.9 |
| 20260505124559 | 57 | 0 | 0.0 | 0.0 | 0.00 | 0.34 | 0.14 | 89 | 1012.1 |
| 20260505124053 | 57 | 0 | 0.0 | 0.0 | 0.00 | 0.34 | 0.14 | 89 | 1012.0 |
| 20260505123556 | 57 | 0 | 0.0 | 2.6 | 0.00 | 0.34 | 0.14 | 89 | 1011.8 |
| 20260505123110 | 57 | 0 | 0.0 | 2.6 | 0.00 | 0.34 | 0.14 | 89 | 1011.8 |
| 20260505122555 | 57 | 130 | 0.0 | 1.7 | 0.00 | 0.34 | 0.14 | 89 | 1011.8 |
| 20260505122053 | 57 | 0 | 0.0 | 0.9 | 0.00 | 0.34 | 0.14 | 89 | 1011.8 |
| 20260505121553 | 57 | 0 | 0.0 | 1.7 | 0.00 | 0.34 | 0.14 | 90 | 1011.8 |
| 20260505121053 | 57 | 0 | 0.0 | 1.7 | 0.00 | 0.34 | 0.14 | 90 | 1011.9 |
| 20260505120553 | 57 | 0 | 0.0 | 3.5 | 0.00 | 0.34 | 0.14 | 90 | 1011.8 |
| 20260505120055 | 57 | 0 | 0.0 | 3.5 | 0.00 | 0.34 | 0.14 | 90 | 1011.8 |
| 20260505115552 | 58 | 130 | 0.0 | 3.5 | 0.00 | 0.34 | 0.14 | 90 | 1011.4 |
| 20260505115052 | 58 | 130 | 0.0 | 6.1 | 0.01 | 0.34 | 0.14 | 90 | 1011.8 |
| 20260505114600 | 58 | 130 | 1.7 | 6.1 | 0.01 | 0.34 | 0.14 | 90 | 1011.6 |
| 20260505114054 | 58 | 135 | 2.6 | 6.1 | 0.01 | 0.34 | 0.14 | 90 | 1011.6 |
| 20260505113557 | 58 | 115 | 2.6 | 6.1 | 0.01 | 0.34 | 0.14 | 91 | 1011.4 |
| 20260505113056 | 58 | 0 | 1.7 | 6.1 | 0.01 | 0.34 | 0.14 | 91 | 1011.5 |
| 20260505112553 | 58 | 101 | 1.7 | 6.1 | 0.01 | 0.34 | 0.14 | 91 | 1011.6 |
| 20260505112053 | 58 | 105 | 0.0 | 3.5 | 0.01 | 0.34 | 0.14 | 91 | 1012.0 |
| 20260505111559 | 58 | 105 | 0.9 | 5.2 | 0.01 | 0.34 | 0.14 | 91 | 1011.9 |
| 20260505111053 | 58 | 105 | 0.9 | 5.2 | 0.01 | 0.34 | 0.14 | 91 | 1011.9 |
| 20260505110553 | 58 | 105 | 1.7 | 5.2 | 0.02 | 0.34 | 0.14 | 91 | 1011.8 |
| 20260505102052 | 57 | 103 | 2.6 | 6.1 | 0.01 | 0.33 | 0.13 | 90 | 1012.2 |
| 20260505101553 | 57 | 104 | 1.7 | 5.2 | 0.02 | 0.33 | 0.13 | 90 | 1012.3 |
| 20260505101052 | 57 | 105 | 0.9 | 3.5 | 0.02 | 0.33 | 0.13 | 90 | 1012.8 |
| 20260505100552 | 57 | 107 | 0.9 | 3.5 | 0.01 | 0.32 | 0.12 | 90 | 1013.1 |
| 20260505100100 | 57 | 111 | 0.9 | 5.2 | 0.01 | 0.32 | 0.12 | 90 | 1013.2 |
| 20260505095552 | 58 | 114 | 0.9 | 7.0 | 0.01 | 0.32 | 0.12 | 90 | 1013.2 |
| 20260505095054 | 58 | 108 | 1.7 | 8.7 | 0.02 | 0.32 | 0.12 | 90 | 1013.0 |
| 20260505094552 | 58 | 121 | 2.6 | 8.7 | 0.02 | 0.32 | 0.12 | 90 | 1013.0 |
| 20260505094053 | 58 | 97 | 4.3 | 8.7 | 0.02 | 0.32 | 0.12 | 90 | 1013.1 |
| 20260505093555 | 58 | 127 | 3.5 | 8.7 | 0.02 | 0.32 | 0.12 | 90 | 1013.1 |
| 20260505093056 | 58 | 113 | 4.3 | 8.7 | 0.02 | 0.32 | 0.12 | 90 | 1013.0 |
| 20260505092557 | 58 | 85 | 3.5 | 8.7 | 0.02 | 0.32 | 0.12 | 90 | 1013.2 |